Location: Dvur Kralove nad Labem
(50.4330°N, 15.8170°E)
Time: 15:02:28
(UTC+02:00)

ISS - Pass Details

Date: 20 May 2018
Orbit: 402 x 407 km, 51.6° (Epoch: 24 May)

Event Time Altitude Azimuth Distance (km) Brightness Sun altitude
Exits shadow 00:06:20 35° 87° (E) 674 -2.8 -18.9°
Drops below altitude 10° 00:08:23 10° 77° (ENE) 1,458 -1.0 -19.0°
Sets 00:10:28 0° 75° (ENE) 2,319 0.1 -19.0°
